Monterey, CA

10:20 PM PDT on October 21, 2017 (GMT -0700)
Monterey Peninsula

Weather History for KMRY - October, 2011

Change the Weather History Date:

Monday, October 17, 2011

  Actual Average Record
Temperature  
Mean Temperature 64 °F 59 °F  
Max Temperature 75 °F 67 °F 82 °F (2008)
Min Temperature 53 °F 50 °F 46 °F (1998)
Degree Days  
Heating Degree Days 1    
Month to date heating degree days 57  
Since 1 July heating degree days 468  
Cooling Degree Days 0    
Month to date cooling degree days 10  
Year to date cooling degree days 25  
Growing Degree Days 13 (Base 50)    
Moisture  
Dew Point 54 °F    
Average Humidity 73    
Maximum Humidity 93    
Minimum Humidity 53    
Precipitation  
Precipitation 0.01 in - 0.68 in (2004)
Month to date precipitation 2.14  
Year to date precipitation 15.05  
Since 1 July precipitation 2.26  
Sea Level Pressure  
Sea Level Pressure 30.08 in    
Wind  
Wind Speed 2 mph (NNE)    
Max Wind Speed 9 mph    
Max Gust Speed 14 mph    
Visibility 7 miles    
Events Fog    
T = Trace of Precipitation, MM = Missing Value Source: NWS Daily Summary

Daily Weather History Graph

Daily Weather History Graph

Search for Another Location

Airport or City:

Trip Planner

Search our weather history database for the weather conditions in past years. The results will help you decide how hot, cold, wet, or windy it might be!

Date:

Astronomy

Oct. 17, 2011 Rise Set
Actual Time 7:16 AM PDT 6:28 PM PDT
Civil Twilight 6:50 AM PDT 6:54 PM PDT
Nautical Twilight 6:20 AM PDT 7:24 PM PDT
Astronomical Twilight 5:50 AM PDT 7:54 PM PDT
Moon 10:20 PM PDT (10/17) 12:20 PM PDT (10/17)
Length of Visible Light 12h 04m
Length of Day
11h 12m
Waning Gibbous, 73% of the Moon is Illuminated
Oct 17
Waning Gibbous
Oct 19
Last Quarter
Oct 26
New
Nov 2
First Quarter
Nov 10
Full

Hourly Weather History & Observations

Time (PDT) Temp. Dew Point Humidity Pressure Visibility Wind Dir Wind Speed Gust Speed Precip Events Conditions
12:54 AM 57.0 °F 52.0 °F 83% 30.11 in 10.0 mi East 3.5 mph - N/A   Clear
1:54 AM 57.0 °F 52.0 °F 83% 30.11 in 10.0 mi ESE 5.8 mph - N/A   Clear
2:54 AM 55.0 °F 51.1 °F 86% 30.11 in 10.0 mi Calm Calm - N/A   Clear
3:54 AM 55.0 °F 51.1 °F 86% 30.10 in 10.0 mi Calm Calm - N/A   Clear
4:54 AM 55.9 °F 51.1 °F 84% 30.11 in 10.0 mi Calm Calm - N/A   Clear
5:30 AM 53.6 °F 50.0 °F 88% 30.07 in 10.0 mi Calm Calm - N/A   Partly Cloudy
5:54 AM 55.0 °F 51.1 °F 86% 30.11 in 10.0 mi Calm Calm - N/A   Partly Cloudy
6:54 AM 55.0 °F 51.1 °F 86% 30.11 in 10.0 mi East 3.5 mph - N/A   Partly Cloudy
7:54 AM 55.0 °F 52.0 °F 89% 30.12 in 9.0 mi Calm Calm - N/A   Clear
8:54 AM 61.0 °F 55.9 °F 83% 30.13 in 10.0 mi Calm Calm - N/A   Clear
9:54 AM 66.0 °F 55.9 °F 70% 30.12 in 10.0 mi Calm Calm - N/A   Clear
10:54 AM 69.1 °F 57.0 °F 65% 30.12 in 10.0 mi WSW 3.5 mph - N/A   Clear
11:54 AM 73.9 °F 55.9 °F 53% 30.10 in 10.0 mi WSW 5.8 mph - N/A   Clear
12:54 PM 72.0 °F 57.0 °F 59% 30.09 in 10.0 mi NW 5.8 mph - N/A   Clear
1:54 PM 72.0 °F 57.0 °F 59% 30.06 in 10.0 mi NNW 5.8 mph - N/A   Clear
2:54 PM 73.0 °F 57.0 °F 57% 30.05 in 10.0 mi NNW 4.6 mph - N/A   Clear
3:54 PM 70.0 °F 57.0 °F 63% 30.04 in 10.0 mi North 6.9 mph - N/A   Clear
4:54 PM 66.2 °F 55.4 °F 68% 30.01 in 10.0 mi NNE 5.8 mph - N/A   Clear
5:54 PM 64.4 °F 55.4 °F 73% 30.02 in 10.0 mi NE 4.6 mph - N/A   Clear
6:54 PM 61.0 °F 54.0 °F 78% 30.06 in 10.0 mi East 3.5 mph - N/A   Clear
7:54 PM 59.0 °F 53.6 °F 82% 30.04 in 9.0 mi Calm Calm - N/A   Clear
8:54 PM 57.0 °F 53.1 °F 87% 30.07 in 9.0 mi Calm Calm - N/A   Clear
9:50 PM 55.4 °F 53.6 °F 94% 30.05 in 2.5 mi Calm Calm - N/A   Scattered Clouds
9:51 PM 55.9 °F 53.1 °F 90% 30.09 in 2.0 mi Calm Calm - N/A   Scattered Clouds
9:54 PM 57.2 °F 53.6 °F 88% 30.05 in 1.5 mi Calm Calm - N/A   Mostly Cloudy
10:06 PM 57.2 °F 53.6 °F 88% 30.05 in 0.8 mi Calm Calm - N/A   Mist
10:20 PM 57.2 °F 53.6 °F 88% 30.05 in 0.2 mi Calm Calm - N/A Fog Fog
10:54 PM 57.2 °F 55.4 °F 94% 30.05 in 0.2 mi Calm Calm - N/A Fog Fog
11:13 PM 55.4 °F 53.6 °F 94% 30.05 in 0.5 mi Calm Calm - N/A Fog Fog
11:28 PM 55.4 °F 53.6 °F 94% 30.05 in 0.2 mi Calm Calm - N/A Fog Fog
11:35 PM 55.4 °F 53.6 °F 94% 30.05 in 0.2 mi Calm Calm - N/A Fog Fog
11:54 PM 55.9 °F 53.1 °F 90% 30.08 in 0.2 mi Calm Calm - N/A Fog Fog